English version Home page |
Updated on March 27, 2010 |
|
軌道要素The following orbital elements are taken from MPC 66921: Epoch 2009 June 18.0 TT = JDT 2455000.5 T 2009 June 13.2385 TT MPC q 1.202239 (2000.0) P Q z -0.000134 Peri. 215.8695 -0.7675781 +0.0280983 Node 309.6781 +0.5757120 -0.4089218 e 1.000161 Incl. 56.3041 -0.2817438 -0.9121367 From 1292 observations 2008 Oct. 6-2009 Aug. 14, mean residual 0".6. Nongravitational parameters A1 = -1.35, A2 = +0.6263.
|
星図
|
光度変化m1 = 6.0 + 5 logΔ + 13.0 log r
|
軌道要素はMPCのEphemerides and Orbital Elementsに掲載されたものです。
|